Regional Weather Roundup
Issued by NWS

Home | Current Version | Previous Version | Graphics & Text | Print | Product List | Glossary On
Versions: 1 2 3 4 5 6 7 8 9 10 11 12 13 14 15 16 17 18 19 20 21 22 23 24 25 26 27 28 29 30 31 32 33 34 35 36 37 38 39 40 41 42 43 44 45 46 47 48 49 50
000
ASUS45 KTFX 010804
RWRMT
MONTANA HOURLY WEATHER ROUNDUP
NATIONAL WEATHER SERVICE GREAT FALLS MT
204 AM MDT FRI AUG 1 2014

NOTE: "FAIR" INDICATES FEW OR NO CLOUDS BELOW 12000 FEET WITH NO
SIGNIFICANT WEATHER AND/OR OBSTRUCTIONS TO VISIBILITY.

* THESE STATIONS ARE NOT UNDER NWS QUALITY CONTROL. THEY DO NOT
   REPORT WEATHER SUCH AS PRECIPITATION OR FOG.

MTZ001>007-043-010900-
WEST OF THE DIVIDE
CITY           SKY/WX    TMP DP  RH WIND       PRES   REMARKS
KALISPELL      CLEAR     57  50  78 NW5       30.07S
MISSOULA       PTCLDY    66  41  40 CALM      30.12R
BUTTE          MOCLDY    57  39  51 SE7       30.27S
MULLAN PASS    PTCLDY    68  30  24 NW6       30.29R
* ESSEX        N/A      N/A N/A N/A N/A        N/A
* LINCOLN      N/A       50  49  96 NW1        N/A
* LOOKOUT PASS N/A       65  41  42 N1         N/A
* POLSON       N/A       66  39  37 N/A        N/A
* RONAN APT    PTCLDY    61  50  67 N/A        N/A
* SEELEY LAKE  N/A       52  43  72 E1         N/A
* THOMP F APT  PTCLDY    58  41  53 N6G15      N/A
$$

MTZ008-052>055-010900-
SOUTHWEST MONTANA
CITY           SKY/WX    TMP DP  RH WIND       PRES   REMARKS
BOZEMAN        MOCLDY    55  45  69 SE6       30.20R
DILLON         PTCLDY    57  39  51 S7        30.23S
W YELLOWSTONE  PTCLDY    46  41  83 SW3       30.34F
* THREE FORKS  PTCLDY    57  54  90 N/A        N/A
* BOULDER HILL N/A       63  35  35 S5         N/A
* MONIDA PASS  N/A       51  43  74 W4         N/A
* RAYNOLDS PAS N/A       50  47  89 VRB1       N/A
* WHITEHALL    N/A       62  39  43 N2G8       N/A
* WISE RIVER   N/A       64  41  43 S3G11      N/A
$$

MTZ009>010-012-014-046-048-049-054-010900-
EAST SLOPES AND CENTRAL MONTANA
CITY           SKY/WX    TMP DP  RH WIND       PRES   REMARKS
CUT BANK       CLEAR     63  54  73 N8        30.15F
GREAT FALLS    PTCLDY    57  45  64 W6        30.12S
HELENA         MOCLDY    64  39  40 NW3       30.16S
MALMSTROM AFB  CLEAR     63  41  45 SW2       30.13S
* CONRAD       CLEAR     54  54 100 N/A        N/A
* DEARBORN     N/A       59  46  62 SE2        N/A
* EAST GLACIER N/A       61  49  65 NE7G12     N/A
* MONARCH      N/A       56  39  53 SW1        N/A
* PENDROY      N/A       62  48  60 NE3        N/A
* ROGERS PASS  N/A       59  40  50 N/A        N/A
* SAINT MARY   N/A       55  49  80 SE4G9      N/A
* SWEET GRASS  N/A       66  58  76 NW8        N/A
$$

MTZ011-013-016-021-035-040-045-047-050-051-010900-
NORTH CENTRAL MONTANA
CITY           SKY/WX    TMP DP  RH WIND       PRES   REMARKS
HAVRE          CLEAR     61  50  67 CALM      30.06S
LEWISTOWN      PTCLDY    59  45  60 E5        30.16S
* CHESTER      N/A       62  48  60 NE3        N/A
* DENTON       N/A       58  43  58 S4         N/A
* GEYSER       N/A       58  41  53 SW6        N/A
* JUDITH GAP   N/A       60  45  58 N/A        N/A
* LOMA         N/A       67  44  44 SW5        N/A
$$

MTZ017>020-022>027-061-062-010900-
NORTHEAST MONTANA
CITY           SKY/WX    TMP DP  RH WIND       PRES   REMARKS
GLASGOW        CLOUDY    72  55  55 NE10      29.99F
GLENDIVE       MOCLDY    70  48  46 E6        30.04R
JORDAN         MOCLDY    73  41  32 CALM      30.02S
SIDNEY         PTCLDY    64  55  73 N6        30.03S
WOLF POINT     CLOUDY    70  57  64 E6        30.00S
* BEAVER HILL  N/A       68  49  51 SE10       N/A
* CIRCLE       N/A       73  45  37 N/A        N/A
* LINDSAY DVD  N/A       68  45  44 NE8        N/A
* NAVAJO       N/A       62  58  87 SE1        N/A
$$

MTZ028>042-056>058-010900-
SOUTHCENTRAL AND SOUTHEAST MONTANA
CITY           SKY/WX    TMP DP  RH WIND       PRES   REMARKS
BAKER          MOCLDY    61  48  62 CALM      30.07R
BILLINGS       MOCLDY    73  41  32 SW7       30.11S
LIVINGSTON     MOCLDY    63  43  48 NW9       30.20F
MILES CITY     PTCLDY    70  45  41 SE8       30.01F
* LAUREL APT   PTCLDY    68  39  35 N/A        N/A
* ROUNDUP APT  MOCLDY    72  39  30 NE5        N/A
* ALZADA       N/A       63  46  54 E2         N/A
* HYSHAM       N/A       69  36  30 W6         N/A
* REED POINT   N/A       71  44  38 SW4G9      N/A
* ROSCOE HILL  N/A       65  38  37 S10        N/A
$$

REGIONAL REPORTS...DAKOTAS
CITY           SKY/WX    TMP DP  RH WIND       PRES   REMARKS
WILLISTON      CLEAR     66  57  73 CALM      30.04F
DICKINSON      CLEAR     57  54  90 E8        30.05S
CROSBY         N/A       57  57 100 S5        30.07S
TIOGA          CLEAR     54  54 100 E6        30.11S
WATFORD CITY   CLEAR     59  57  93 SW3       30.04R
BISMARCK       MOCLDY    63  57  81 NE8       30.06S
GRAND FORKS    PTCLDY    61  59  93 CALM      30.02R
FARGO          CLEAR     63  59  87 CALM      30.01S
BUFFALO SD     PTCLDY    64  46  52 W6        30.01S
RAPID CITY     CLEAR     57  52  83 CALM      30.11S
$$

REGIONAL REPORTS...WYOMING/IDAHO/WASHINGTON
CITY           SKY/WX    TMP DP  RH WIND       PRES   REMARKS
GILLETTE       PTCLDY    63  43  48 S12       30.15F
SHERIDAN       PTCLDY    57  45  64 S5        30.10F
CODY           PTCLDY    66  41  40 SW6       30.21R
YELLOWSTONE LA MOCLDY    43  39  86 NW3       30.43F
SALMON         CLOUDY    64  48  56 CALM      30.16S
MULLAN PASS    PTCLDY    68  30  24 NW6       30.29S
SAND POINT     PTCLDY    57  50  78 CALM      30.03R
SPOKANE        CLOUDY    73  34  24 S6        30.02S

$$




USA.gov is the U.S. government's official web portal to all federal, state and local government web resources and services.